Wind_Speed
56 56 57 57 58 58 58 58 57 57 56 55 54 54 55 57 58 59 59 58 58 57 57 56 56 55 55 54 54 54 53 51 50 48 49 53 50 49 53 55 56 59 62 64 65 66 68 69 70 72 73 74 75 76 76 75 74 73 70 66 63 61 62 63 63 64 63 63 66 67 65 61 57 56 56 52 48 47 47 55 62 55 43 39 38 37 37 41
57 59 60 60 61 61 62 62 62 61 60 60 59 58 57 56 57 59 60 60 60 60 60 59 58 57 56 55 54 55 55 54 51 50 53 53 49 50 53 53 54 55 58 60 63 65 67 68 70 70 70 71 73 75 75 76 75 73 71 67 64 64 65 66 66 66 64 66 69 68 67 63 58 57 54 49 49 49 52 62 65 53 44 42 40 39 40 42
58 59 60 62 63 64 65 65 65 65 65 64 63 63 61 60 59 59 59 60 61 61 62 62 61 59 58 56 55 55 56 55 54 54 56 53 50 52 52 52 53 53 55 57 59 62 64 67 69 69 69 69 70 72 73 74 74 73 72 68 66 67 68 68 67 67 67 69 71 70 68 62 57 55 51 48 52 54 58 67 64 50 45 44 41 41 41 42
62 62 62 63 64 65 66 67 68 68 68 68 68 67 66 65 64 62 62 61 61 61 62 62 62 60 59 57 56 56 56 56 56 57 58 55 52 52 52 53 52 51 54 55 56 59 62 64 66 68 69 69 69 70 70 71 72 72 71 68 69 71 71 70 69 69 71 72 72 70 64 57 53 52 52 56 59 58 60 68 62 48 45 44 42 43 42 42
65 66 66 67 67 67 67 68 69 70 71 71 71 71 70 69 68 67 66 65 64 63 63 63 62 61 60 58 56 56 56 57 57 58 59 56 55 54 53 54 52 52 53 54 54 56 58 61 63 66 67 68 69 69 68 69 70 69 69 68 71 73 72 72 71 72 74 73 70 66 59 53 50 53 61 66 62 58 61 70 62 46 44 44 43 44 43 42
68 69 69 69 70 70 70 70 70 71 72 73 73 73 74 73 72 71 70 69 68 67 66 66 65 63 61 59 58 57 56 57 56 57 59 58 56 56 55 54 53 53 53 53 53 54 56 58 60 62 64 67 68 69 69 70 69 66 66 67 70 71 71 72 73 75 74 71 66 62 58 53 53 59 68 66 59 59 66 71 61 45 43 44 44 45 44 42
73 73 72 72 72 72 73 73 73 73 73 74 75 75 76 76 76 75 74 73 72 72 71 70 69 66 65 62 60 58 57 56 55 56 59 58 57 57 57 56 55 54 53 53 53 53 55 56 57 58 61 64 66 68 70 71 69 64 63 65 67 69 69 70 73 75 72 69 65 62 62 60 60 63 68 63 58 63 69 68 56 44 42 43 45 45 43 39
75 76 75 75 74 74 75 75 75 75 75 75 76 77 77 78 78 78 77 77 76 75 74 74 73 70 69 66 63 60 57 58 57 58 59 58 56 57 57 57 56 55 54 54 54 54 54 54 55 56 58 60 64 66 68 71 68 64 62 63 65 65 66 68 71 72 70 67 64 65 66 66 63 62 65 62 61 67 70 64 53 46 44 42 45 47 43 38
76 76 76 76 76 76 76 76 77 78 78 78 78 78 79 79 80 80 80 79 79 78 77 77 75 74 72 69 67 61 60 64 63 60 58 56 54 54 56 57 57 56 55 54 54 54 53 52 53 55 56 58 61 64 66 68 66 64 63 64 64 63 63 65 67 67 66 63 63 66 67 66 63 61 65 64 65 69 69 64 53 48 46 44 47 48 42 39
75 76 76 76 76 76 76 77 77 79 80 81 80 80 80 81 81 81 81 81 81 80 79 79 78 77 74 72 69 63 66 71 64 59 57 54 53 53 54 56 56 57 56 56 55 54 54 53 54 54 55 56 58 60 62 62 63 64 65 66 64 63 62 62 62 61 61 59 59 64 64 65 64 62 63 65 68 68 68 65 53 47 48 46 50 48 43 41
77 76 76 76 76 76 77 77 77 79 81 83 83 83 82 82 83 83 83 82 82 82 82 81 80 78 75 73 69 66 74 74 64 60 58 55 56 55 54 55 56 57 57 57 55 55 55 55 55 54 53 54 55 56 58 58 60 63 65 65 64 63 61 59 57 55 56 54 53 58 61 62 61 60 62 65 68 66 67 65 52 48 50 49 52 49 43 41
79 78 77 77 77 77 78 78 79 79 81 84 85 85 85 84 85 85 85 84 83 83 83 82 81 79 77 74 69 71 79 75 67 64 59 58 61 59 57 55 56 57 57 57 57 56 56 56 56 53 51 52 53 53 54 56 58 60 62 63 64 64 61 57 55 52 52 50 49 54 56 56 55 56 60 63 66 64 64 63 53 50 51 51 52 47 40 37
81 80 79 78 78 78 79 80 81 81 83 85 86 88 87 87 87 87 87 86 86 85 84 83 81 80 77 73 71 77 81 75 71 67 61 64 65 62 60 57 56 56 57 58 58 59 57 57 55 53 52 51 51 51 52 54 55 56 58 60 63 63 59 57 56 54 53 48 49 53 50 48 49 51 55 59 61 60 60 60 55 52 51 51 49 41 33 30
83 82 81 81 81 81 82 82 83 84 85 86 88 90 90 90 89 89 89 89 88 87 86 84 82 81 77 73 75 81 82 76 72 68 65 68 67 65 63 60 58 57 57 59 60 61 59 58 55 53 52 50 50 50 50 51 51 52 53 55 59 59 58 59 58 57 54 49 51 51 44 43 45 46 50 53 55 54 55 57 53 51 49 46 42 33 25 23
83 82 81 81 81 82 82 83 84 86 87 88 90 92 92 93 92 92 92 91 91 90 88 86 84 81 77 74 78 83 82 76 71 68 69 71 70 67 65 63 62 60 59 59 60 61 60 58 55 52 51 50 50 48 47 47 46 48 50 51 54 56 58 61 60 58 54 52 53 49 41 41 43 43 45 47 49 49 50 52 49 46 44 42 39 33 33 36
79 78 78 78 78 78 79 80 82 84 86 88 90 92 94 94 95 96 95 95 94 92 90 89 86 83 78 76 81 84 81 76 73 72 72 74 74 70 68 66 64 63 60 59 59 59 60 59 55 53 52 51 49 45 44 44 43 45 47 49 52 55 58 61 60 57 55 54 53 47 40 40 41 40 41 43 44 44 45 46 43 39 39 41 41 42 46 50
74 73 73 72 73 73 74 75 77 79 81 84 87 90 92 94 96 97 98 99 97 95 93 91 89 85 80 81 84 85 82 79 77 76 76 77 76 73 71 69 67 65 63 61 59 58 59 59 56 54 51 49 47 44 42 40 40 43 44 46 50 53 56 59 59 58 57 56 53 47 42 42 41 38 38 40 40 40 40 39 38 37 37 39 41 44 48 50
69 69 68 68 68 69 69 70 71 73 75 78 81 84 87 91 94 96 99 100 99 98 96 94 93 88 85 86 87 87 85 82 80 78 78 77 76 75 73 71 71 68 66 63 60 58 57 57 57 55 50 47 45 43 40 38 40 42 43 45 49 51 53 57 60 60 59 57 53 46 44 43 40 37 36 37 37 37 37 36 36 36 36 38 41 47 50 49
67 66 66 66 66 66 66 67 68 68 69 71 74 77 81 85 88 92 96 97 97 98 98 98 96 92 90 91 90 89 87 84 82 80 78 77 77 76 74 73 73 71 68 64 61 58 56 55 55 53 49 46 44 42 40 41 42 42 43 46 48 49 51 55 60 62 58 55 52 46 45 44 38 36 35 35 36 35 34 35 36 36 39 41 43 48 50 50
64 63 63 63 63 64 64 65 65 66 66 67 68 71 75 78 81 85 88 90 92 96 99 100 99 95 94 94 92 91 89 86 84 81 79 78 77 77 75 75 74 72 68 65 62 60 57 54 51 49 49 48 46 44 44 45 43 43 44 46 47 47 48 53 58 60 55 51 51 47 46 44 38 36 34 34 35 33 33 35 37 38 42 46 47 48 49 48
61 60 59 59 60 60 60 61 61 62 63 64 65 67 70 72 74 76 78 81 86 93 98 100 100 98 98 97 96 94 91 87 84 81 80 80 79 78 76 75 74 71 68 66 65 63 58 52 47 47 50 51 50 48 48 47 44 44 45 44 44 44 45 50 56 57 52 50 52 49 46 44 39 36 35 35 34 32 34 36 37 38 43 49 50 49 49 47
57 56 55 56 56 56 56 56 56 57 58 59 61 63 66 67 68 69 71 74 81 88 93 97 99 100 102 101 99 97 94 90 86 83 82 81 81 79 77 76 73 70 69 69 67 63 56 50 48 49 50 51 51 51 50 48 45 46 44 42 42 41 43 48 52 53 50 50 53 50 46 43 39 37 36 35 34 32 33 36 35 38 46 51 51 50 50 49
52 51 51 52 52 52 52 51 51 52 53 54 55 57 60 62 63 65 66 68 74 80 84 90 95 100 105 105 102 99 95 92 89 86 84 82 80 79 78 77 73 72 72 70 66 62 56 51 52 52 51 51 51 52 51 47 46 45 43 41 40 40 42 46 49 51 51 51 52 51 47 43 40 39 37 35 34 31 31 32 35 40 47 51 50 48 49 49
49 48 47 48 48 48 48 47 47 47 47 48 50 51 53 56 57 59 61 63 68 72 76 83 89 96 104 107 104 101 97 95 92 89 86 84 82 81 79 76 75 74 72 69 66 63 59 56 57 55 52 51 51 52 50 46 46 45 42 40 39 39 42 44 47 51 52 50 50 51 49 45 42 40 37 35 33 31 30 32 36 42 46 48 46 44 45 46
47 46 45 45 45 45 44 43 42 42 42 43 44 46 48 51 52 53 54 57 62 68 71 75 82 91 101 104 102 102 101 98 94 91 89 86 84 83 80 78 77 74 71 70 68 65 63 61 61 57 55 54 52 50 48 46 46 45 41 40 39 40 42 44 48 51 50 46 48 53 52 46 43 41 39 36 33 33 32 32 37 42 44 46 45 44 45 45
44 43 42 41 41 41 40 39 38 38 38 38 38 41 43 46 48 48 49 51 59 65 66 69 76 86 97 100 99 101 102 99 96 94 91 88 85 84 83 81 77 73 71 72 70 68 66 63 61 58 56 56 53 49 47 47 47 45 42 42 41 40 41 46 49 47 44 43 48 56 53 47 43 40 39 38 36 35 32 32 37 43 45 47 46 44 43 42
40 38 38 37 37 37 36 35 34 34 34 34 35 36 37 41 43 44 45 47 54 59 61 66 72 81 91 95 96 99 100 100 99 97 93 90 87 85 84 82 78 75 74 74 72 68 65 63 61 59 57 55 51 47 45 47 48 45 44 44 42 40 42 47 47 43 43 45 50 55 52 48 44 41 40 41 39 35 32 32 38 43 45 46 46 44 41 40
39 37 35 35 34 34 32 31 30 29 30 31 31 32 33 35 38 40 42 45 50 54 57 64 70 77 85 87 90 95 98 100 100 98 96 93 91 87 83 81 80 78 77 74 69 65 64 64 62 60 58 53 50 47 46 48 48 47 47 46 43 42 44 48 46 43 43 44 47 51 51 48 45 43 43 43 40 36 35 35 38 41 44 45 45 42 39 39
39 36 34 32 31 31 29 27 26 25 26 27 28 29 30 31 34 37 41 45 49 51 54 62 69 75 79 80 84 91 96 98 99 100 101 98 94 89 84 83 82 81 80 75 69 68 67 65 63 62 58 53 51 50 49 48 47 49 50 47 45 44 46 47 44 42 42 39 42 48 50 48 47 46 45 42 40 40 40 39 37 39 44 46 44 40 37 38
37 34 31 29 28 26 25 24 22 22 22 24 25 26 27 29 31 35 39 45 48 49 53 59 66 72 75 75 80 86 91 95 99 102 103 101 96 91 87 86 85 84 81 76 73 71 68 66 65 62 57 54 54 53 51 48 49 51 49 47 48 47 47 46 43 43 40 36 40 47 50 50 49 48 45 43 44 44 43 40 37 40 46 46 43 39 37 36
36 33 30 27 25 22 20 19 18 18 19 20 22 23 25 26 29 33 37 42 45 47 50 55 60 66 69 72 77 83 89 95 99 100 100 100 97 93 90 89 88 85 81 78 74 71 69 67 64 60 59 58 57 55 52 49 50 51 49 49 50 48 47 45 42 40 34 32 40 47 49 50 50 48 46 46 48 47 43 41 39 41 45 46 43 42 39 37
36 34 31 28 24 21 19 17 15 14 15 17 19 20 22 24 26 30 34 38 41 44 47 51 56 61 66 70 74 81 88 93 95 95 97 97 94 92 89 87 85 83 79 75 72 70 69 67 64 63 63 61 58 56 52 50 50 49 50 51 49 48 47 42 38 35 30 32 40 44 47 49 50 51 51 50 49 47 44 43 40 40 44 47 46 44 41 40
38 34 31 28 25 22 19 17 15 12 12 14 16 18 19 22 24 27 30 33 36 39 44 50 54 59 64 68 73 80 85 87 89 92 94 94 91 90 89 86 84 82 78 74 73 73 72 69 68 66 64 60 57 54 50 48 48 48 50 50 48 48 45 38 35 33 32 34 38 43 47 47 49 53 53 50 49 48 46 45 43 41 43 47 47 43 41 42
39 35 31 28 25 22 19 18 15 12 10 11 13 16 17 19 22 24 27 29 31 35 41 48 52 56 61 66 72 78 81 82 85 89 91 91 92 92 91 87 85 83 79 78 77 75 73 69 66 61 59 57 55 52 50 50 49 49 50 50 49 47 42 37 35 34 34 34 37 45 48 46 48 54 53 50 50 50 49 48 47 45 45 47 46 44 42 44
42 37 32 28 25 22 19 17 15 11 8 8 10 13 16 18 20 22 24 26 28 32 38 45 49 53 58 64 69 74 76 79 82 86 88 89 90 90 88 84 83 82 82 80 77 74 70 65 59 57 58 59 56 53 55 55 51 50 50 48 47 45 42 40 39 38 37 36 39 45 46 43 46 52 52 50 51 51 52 51 49 46 47 50 50 48 47 46
43 39 34 29 25 22 18 15 14 11 8 6 7 10 13 16 18 20 23 25 28 31 36 43 48 52 56 61 66 70 74 78 81 83 86 88 88 88 85 83 83 83 82 79 76 72 68 62 59 60 61 60 57 56 58 54 50 50 48 45 46 47 45 44 41 39 38 37 39 43 45 42 44 50 52 51 51 52 52 52 51 50 51 54 56 54 51 49
44 39 34 30 26 22 18 14 12 10 7 6 7 9 10 12 14 17 20 24 27 31 36 42 48 52 55 58 63 68 72 76 79 81 83 86 87 88 87 85 85 83 80 77 74 72 68 63 62 63 61 59 57 57 58 53 49 49 46 44 49 50 47 45 42 38 38 37 38 43 46 42 42 48 52 53 53 51 50 51 53 54 56 57 58 57 54 52
45 40 35 30 26 22 18 15 11 8 5 4 6 8 10 11 12 14 17 21 26 31 36 42 48 52 54 56 60 65 70 73 75 78 81 84 86 86 86 86 85 83 79 76 74 72 71 69 68 65 62 59 58 58 58 53 50 50 46 45 49 49 45 44 42 39 38 37 39 44 46 41 40 45 49 52 54 51 49 51 53 57 60 59 59 59 57 56
46 42 36 31 26 22 18 15 12 9 5 1 3 6 10 13 14 16 18 21 26 31 36 41 45 48 50 52 56 61 66 69 72 75 78 80 83 84 84 84 83 81 79 77 75 74 74 74 71 66 63 62 61 60 56 52 51 52 49 46 47 48 46 44 42 41 39 38 40 43 44 42 41 43 46 50 53 52 50 51 53 58 61 61 60 60 60 59
47 43 37 31 26 22 18 15 13 10 7 4 3 4 7 12 16 18 21 24 27 31 34 38 42 46 48 49 52 58 63 67 71 74 76 79 81 83 83 83 82 80 78 76 75 76 77 74 70 68 66 63 60 56 52 52 53 53 49 44 45 48 47 45 44 42 39 38 39 42 43 43 44 43 46 50 52 51 51 51 52 57 62 63 62 61 60 60
47 44 38 32 27 23 19 16 14 12 10 8 7 7 8 10 14 18 22 25 28 30 33 36 39 43 46 47 49 53 59 64 70 74 77 79 81 81 81 82 82 81 79 77 76 77 76 73 70 68 64 59 56 55 56 57 56 53 48 43 44 47 47 46 44 39 38 38 40 41 43 46 47 46 48 50 49 49 51 53 54 56 61 65 65 62 61 61
46 43 38 33 28 24 20 18 16 14 13 12 11 11 10 10 11 15 19 22 26 29 31 34 36 40 43 45 46 48 53 60 66 72 75 77 78 79 80 81 82 80 78 77 76 75 74 72 69 65 60 58 60 61 61 59 55 52 48 44 45 48 47 45 42 38 38 39 40 41 43 46 48 48 48 49 47 48 50 53 55 56 59 64 65 65 64 63
44 41 37 33 29 25 22 19 18 17 16 15 14 13 13 11 11 12 16 20 23 26 29 32 35 38 41 41 42 45 50 57 63 68 72 75 77 78 80 81 80 78 77 76 75 74 73 71 69 65 63 63 64 63 62 59 53 50 47 43 44 47 47 45 44 41 39 39 39 41 42 45 47 47 48 49 48 48 49 52 55 56 57 60 62 64 67 67
41 40 37 34 29 25 22 20 19 18 17 16 16 15 15 13 11 11 14 17 21 23 26 29 32 35 38 39 39 42 48 55 61 65 71 74 76 78 81 81 79 78 76 74 73 74 72 69 67 65 64 64 64 61 58 54 50 47 44 42 44 47 48 48 47 44 40 38 38 39 41 44 46 45 47 50 50 49 49 51 54 54 55 55 57 61 65 65
39 38 36 33 28 24 21 19 18 18 18 16 16 16 16 14 12 12 13 15 19 22 25 28 31 34 37 38 38 40 46 53 59 64 70 74 77 79 80 79 77 75 74 73 73 73 69 65 63 61 59 58 57 53 49 47 47 46 44 43 44 47 49 49 47 43 39 38 38 39 41 43 44 45 47 50 51 49 49 50 51 52 52 52 55 58 60 60
35 34 33 31 27 23 21 19 17 17 17 16 16 17 17 16 15 13 13 14 16 20 23 27 32 35 38 40 40 43 47 52 57 62 69 74 77 77 76 75 74 72 72 73 74 72 68 64 61 59 56 55 54 52 50 49 47 45 45 44 44 47 50 49 46 42 40 39 39 40 41 42 45 46 46 48 49 49 49 50 51 51 51 51 54 56 56 56
33 31 30 28 26 23 20 19 16 15 16 15 16 16 17 18 18 17 15 15 15 18 21 25 31 36 39 41 44 46 50 53 56 61 67 72 75 75 74 73 73 72 73 74 73 70 66 63 61 58 56 55 55 56 55 52 48 46 47 46 45 48 51 50 47 44 42 40 40 40 41 43 45 45 45 45 46 48 50 51 52 52 52 53 54 53 54 54
30 27 26 26 25 23 20 19 16 14 14 15 15 16 17 18 19 19 18 17 16 16 20 24 29 35 38 41 42 45 48 53 56 61 66 70 73 74 74 74 73 73 74 74 71 68 64 61 60 59 58 57 57 57 56 54 52 50 49 47 47 50 52 50 47 45 43 41 39 39 40 42 44 45 44 44 45 48 50 52 53 53 52 53 53 52 51 52
28 26 25 24 23 22 21 20 17 14 12 13 15 16 16 17 18 19 19 19 19 18 19 23 29 34 37 38 39 40 44 49 55 61 66 70 73 74 75 75 75 76 76 74 71 67 63 60 60 59 59 59 59 59 57 55 53 51 49 49 49 52 52 50 47 44 42 41 40 39 39 41 42 41 40 41 43 46 48 50 52 52 52 52 52 52 51 49
29 25 23 22 21 21 22 20 18 15 12 12 14 15 16 16 17 18 18 19 21 21 21 23 28 33 35 36 37 38 40 46 54 60 65 70 72 74 74 75 75 76 74 71 67 63 60 59 59 59 61 61 61 60 58 56 54 52 51 50 50 51 51 49 47 43 41 41 41 39 39 39 39 39 38 40 42 45 46 47 48 50 51 51 50 50 49 47
28 24 21 20 19 19 19 19 17 16 13 11 12 14 15 16 16 17 18 17 19 23 25 26 29 32 35 35 35 37 40 45 51 56 62 67 71 73 74 74 73 72 69 65 62 59 59 59 59 60 61 61 61 59 57 55 53 52 51 50 48 50 50 49 46 43 42 41 41 39 39 39 39 40 41 42 45 46 46 46 46 47 49 50 49 48 47 45
28 24 21 18 17 16 16 16 16 17 16 12 9 12 14 15 15 17 18 17 18 21 26 29 31 34 35 34 33 36 41 46 52 57 61 65 68 71 73 72 71 69 65 62 61 60 60 60 59 59 58 57 57 56 53 51 50 49 48 47 46 48 49 47 45 43 41 40 41 42 41 39 39 41 42 44 46 46 45 45 45 45 46 48 49 49 48 46
Wind_Direction
280 278 276 274 272 270 268 266 264 262 260 258 257 257 256 255 254 253 253 253 253 253 254 254 254 254 254 255 255 253 252 251 250 249 249 247 245 245 245 243 242 242 241 240 238 238 238 238 238 238 239 239 239 239 239 239 239 239 240 240 239 239 239 238 238 237 236 237 239 240 240 239 240 242 243 246 250 252 251 250 250 250 250 249 248 251 253 254
281 279 277 275 273 272 270 268 266 264 262 259 257 255 254 254 253 253 252 252 252 252 252 253 253 253 253 253 253 253 253 251 249 249 249 247 246 245 245 244 243 243 243 242 240 238 238 238 238 238 239 239 239 240 239 239 239 240 240 239 239 239 239 239 238 238 238 238 239 240 240 239 239 242 244 246 250 251 251 250 249 248 250 250 249 251 253 254
282 280 277 275 273 271 270 269 267 265 263 261 259 257 254 253 252 251 251 250 250 250 251 252 252 252 252 251 251 252 252 251 250 249 249 247 246 246 246 246 244 243 244 243 242 240 239 238 238 238 239 239 240 240 240 240 240 240 240 239 239 239 239 239 239 239 239 239 240 240 240 239 240 243 246 247 247 247 248 250 249 246 250 251 250 252 253 255
285 282 280 277 274 271 269 268 266 265 264 262 260 258 256 254 252 251 250 249 249 249 249 250 250 251 251 250 250 250 251 250 249 249 249 247 246 247 247 247 245 243 243 244 243 242 241 240 239 238 238 239 239 240 240 240 240 240 239 238 238 238 238 239 239 239 239 239 240 241 241 242 243 245 247 245 244 244 248 252 250 246 249 252 251 251 252 253
284 282 280 278 276 273 271 268 266 264 263 262 260 259 257 255 253 251 250 249 248 247 247 248 248 249 249 249 249 249 250 250 249 249 249 248 247 247 246 246 246 244 244 244 243 243 242 241 240 239 238 238 238 239 239 239 239 239 238 238 238 238 238 238 239 239 239 240 241 243 244 242 242 243 244 243 242 244 248 252 251 246 249 252 251 251 251 251
283 281 279 277 275 273 271 269 267 264 262 260 259 258 257 255 254 253 251 249 248 247 246 246 246 247 247 247 248 248 249 249 248 248 249 247 247 247 246 246 245 245 244 244 244 243 243 242 241 240 239 238 238 238 238 239 238 238 238 238 238 238 238 238 239 239 240 241 243 245 246 243 240 240 243 244 244 245 246 250 251 248 247 250 251 251 251 251
282 280 278 276 273 271 270 269 267 266 263 261 259 257 256 255 254 253 252 250 249 248 246 246 245 245 245 245 246 247 248 248 247 247 247 247 246 246 246 246 246 245 245 245 244 243 243 242 242 241 240 239 238 237 237 238 237 236 237 238 238 238 238 239 239 240 241 242 243 244 244 242 239 240 243 245 245 246 247 249 251 249 248 248 251 252 252 252
281 279 277 275 272 270 268 267 266 265 264 262 259 257 255 254 253 252 251 250 249 249 248 247 245 244 243 243 244 244 247 248 245 243 244 245 245 245 246 246 246 245 245 245 244 244 243 243 242 242 241 240 239 238 237 238 237 236 236 238 239 238 238 239 240 241 241 242 242 242 242 242 240 241 245 245 245 247 248 249 249 249 249 249 251 253 253 253
281 279 276 274 271 269 266 264 263 263 262 261 260 258 256 254 252 251 250 249 249 248 248 248 247 245 243 243 242 242 245 245 242 241 243 245 246 247 247 247 247 246 246 245 245 244 244 244 243 242 241 240 239 238 237 238 237 236 235 236 237 238 238 239 240 241 241 241 242 242 242 243 242 241 244 246 245 247 249 250 247 247 249 249 251 252 253 254
284 281 278 275 272 269 266 263 261 260 259 259 259 258 256 254 252 251 249 248 248 248 247 247 247 246 245 244 241 240 242 243 242 242 244 246 248 248 248 248 247 247 246 245 245 244 244 243 242 241 240 240 241 240 239 238 237 236 235 235 236 237 238 239 240 242 242 240 242 244 243 243 242 241 244 246 246 247 249 250 247 246 248 249 251 252 252 253
287 284 281 277 273 270 266 263 260 257 256 256 256 256 255 253 252 251 249 248 247 246 246 246 246 246 245 245 243 241 242 242 241 241 242 244 245 245 245 246 246 246 246 245 245 244 243 243 242 241 241 241 242 241 240 238 237 236 235 235 236 237 238 239 240 242 242 240 240 244 243 241 242 241 243 245 246 247 249 251 248 246 247 248 250 251 251 254
289 286 282 278 274 271 267 263 260 256 254 253 253 253 253 252 251 250 249 247 246 245 245 245 245 245 245 244 243 242 242 241 238 238 239 240 241 241 241 241 242 243 243 244 244 243 243 242 242 241 241 241 241 241 241 239 238 236 235 235 235 236 237 239 240 240 241 239 238 241 242 241 241 241 242 244 246 247 248 251 248 245 245 246 248 250 252 257
290 287 283 279 275 271 267 263 260 256 253 250 250 250 250 250 249 248 247 246 245 244 243 243 243 243 243 243 242 242 243 241 238 237 236 238 239 240 240 239 240 240 241 241 241 241 241 241 241 240 240 240 241 241 241 239 238 237 236 235 235 236 236 237 238 238 238 236 237 239 240 241 240 240 241 243 245 246 248 249 247 244 243 243 246 249 255 263
290 286 283 279 275 271 267 264 260 257 253 250 247 247 246 246 246 246 245 244 244 243 242 241 241 241 241 240 240 241 242 241 239 236 235 238 239 239 240 240 240 240 240 240 239 239 240 240 240 240 240 240 241 240 240 240 240 239 237 236 236 236 235 236 235 235 236 234 236 238 237 239 240 239 240 243 245 245 246 247 245 242 242 242 244 246 248 248
289 285 282 278 275 272 268 265 261 258 254 251 248 246 244 244 243 243 243 242 242 241 241 240 239 239 238 238 239 241 242 241 240 237 235 236 237 238 239 240 240 240 240 240 240 239 240 240 240 240 240 241 241 240 241 241 240 240 237 236 236 234 233 234 234 234 234 233 235 237 235 237 239 239 240 242 243 243 243 244 243 241 240 238 232 222 214 216
288 285 282 279 276 273 269 266 262 259 256 253 250 247 245 243 242 241 240 240 240 239 239 238 238 237 235 235 237 239 240 239 238 236 234 234 235 235 236 238 239 240 240 241 240 240 239 240 239 239 239 240 241 240 240 240 240 240 238 236 234 232 231 233 233 232 233 233 234 235 233 236 238 239 240 241 241 241 240 242 241 237 234 231 224 212 206 209
289 286 283 280 277 274 271 267 264 261 258 255 252 250 247 245 242 240 239 238 238 237 237 236 236 235 233 233 235 236 236 236 235 234 233 233 233 233 233 235 237 238 239 240 240 240 239 239 238 239 239 240 241 241 241 241 241 241 239 237 235 232 232 232 232 231 231 232 233 232 231 234 236 238 238 239 239 238 238 238 235 230 224 224 220 213 210 209
291 288 285 282 279 276 272 269 266 263 259 256 254 251 249 246 244 242 240 238 237 236 235 235 235 233 231 231 232 234 234 234 234 234 234 233 233 232 232 233 235 236 237 238 239 240 240 239 238 238 238 240 241 242 242 241 240 239 238 236 235 232 231 231 231 229 229 230 231 229 230 232 233 236 235 236 237 235 234 232 228 222 214 214 211 206 209 208
293 290 287 284 280 277 274 271 268 264 261 258 255 252 250 247 245 243 241 239 237 236 234 234 234 232 231 231 231 233 233 233 233 233 234 234 234 234 232 232 234 236 237 238 239 240 240 239 238 239 239 240 241 241 240 239 237 236 236 234 233 231 230 230 231 229 227 229 230 227 229 230 229 232 232 232 234 230 228 225 221 214 204 205 204 200 204 207
295 292 288 285 281 277 274 271 268 265 262 259 256 253 251 248 246 243 242 240 238 236 234 233 233 231 230 230 230 231 232 233 233 233 233 234 234 234 233 232 234 235 236 238 238 239 239 239 238 238 238 238 238 237 237 237 236 235 235 234 233 232 230 231 233 231 226 228 230 226 227 228 226 228 229 229 231 227 223 220 216 210 200 200 200 198 201 205
297 293 289 285 281 278 275 272 269 266 263 260 257 254 251 249 247 244 242 240 237 236 234 233 232 230 230 230 229 230 231 231 232 233 233 234 234 234 233 233 233 234 235 236 237 237 237 237 237 237 237 235 234 234 234 234 234 235 236 235 234 233 231 232 233 232 224 225 229 225 224 227 224 225 226 226 227 222 218 215 212 205 198 198 199 197 198 202
299 295 291 287 284 281 277 274 271 268 264 261 257 254 252 249 247 244 241 238 236 234 233 232 231 229 229 229 229 229 230 230 230 230 231 232 234 235 234 233 232 232 233 234 235 237 237 237 236 236 236 235 234 233 233 233 234 235 235 235 235 233 232 233 234 232 223 221 227 225 222 223 221 222 223 222 222 218 215 213 209 201 197 200 201 200 202 207
301 297 293 289 285 282 280 276 273 269 265 262 258 255 252 250 247 243 240 237 235 233 231 231 230 228 229 229 228 228 229 229 229 229 229 229 231 233 234 234 231 229 230 232 234 235 235 235 236 236 236 235 234 233 233 234 235 237 237 237 236 234 233 233 234 232 223 219 223 224 221 219 218 220 221 219 219 216 213 212 207 201 200 203 204 204 207 209
305 300 295 291 287 285 283 280 275 271 267 262 259 255 253 250 247 243 240 236 234 233 230 228 228 227 228 229 228 227 227 228 228 228 228 228 228 229 230 232 231 229 228 229 231 231 231 231 232 234 234 235 235 234 233 233 235 237 237 238 237 236 235 233 233 232 224 218 221 224 220 216 215 217 219 218 217 214 211 212 207 203 204 205 203 203 207 208
309 304 299 294 291 288 286 283 279 275 269 263 259 255 251 249 247 244 240 235 232 231 228 226 225 225 227 228 228 226 226 227 227 227 227 227 227 227 227 228 229 229 228 227 227 228 228 229 230 230 231 233 233 233 231 230 233 234 235 236 236 235 236 234 232 231 224 215 219 223 219 214 212 213 216 215 213 213 212 212 209 204 205 206 202 204 208 209
310 305 301 296 293 290 288 284 281 276 271 266 260 254 249 247 246 243 239 234 230 229 226 223 222 223 225 226 226 225 225 225 226 227 227 227 227 227 226 226 227 227 227 226 226 226 226 228 230 231 231 233 233 232 230 229 231 232 232 234 234 234 236 237 234 231 225 213 215 222 219 213 212 210 213 214 210 210 210 211 209 205 206 207 205 204 208 208
314 309 304 300 297 293 290 286 281 276 271 267 261 254 248 244 242 240 236 232 229 228 224 221 220 220 222 223 222 223 223 223 224 225 226 226 226 226 225 225 225 225 224 224 224 225 226 228 229 230 232 233 234 233 233 231 230 230 231 232 233 232 234 237 234 230 225 216 215 220 217 212 211 209 212 215 211 208 209 211 209 206 207 207 205 204 207 209
321 316 310 305 301 298 294 289 283 277 270 265 261 255 248 242 238 235 232 228 227 224 221 219 219 219 220 220 220 220 221 221 222 222 223 224 224 224 224 224 224 224 223 223 223 223 225 226 228 229 231 233 234 234 233 233 231 229 230 231 231 231 233 236 233 226 224 219 218 221 218 212 209 209 212 215 212 208 210 211 208 205 204 202 202 203 207 210
325 320 314 309 304 300 296 291 285 277 269 264 259 254 248 240 235 231 227 224 223 220 217 217 216 217 218 216 216 218 219 219 220 220 221 221 222 222 221 221 221 222 222 220 219 220 222 223 224 227 228 230 232 232 232 232 230 229 229 231 231 231 232 236 234 228 224 220 220 222 218 212 208 209 211 212 213 210 209 210 207 206 205 201 199 202 205 207
329 325 320 314 308 303 298 293 286 277 268 261 257 252 246 239 232 227 224 222 220 216 213 214 214 215 215 213 213 215 216 217 218 218 219 219 219 219 218 218 219 220 221 219 217 217 219 220 222 224 225 227 229 230 230 230 229 228 228 229 231 230 233 235 233 229 224 218 221 223 217 212 208 209 210 210 213 212 208 207 206 208 208 203 199 200 202 204
336 334 330 324 318 312 306 300 291 280 270 261 255 250 244 238 231 225 223 221 219 215 211 212 213 214 213 211 210 212 213 215 216 217 218 218 218 217 216 216 217 218 219 219 218 217 218 219 221 222 224 225 226 228 229 229 229 228 226 227 230 231 233 235 233 231 225 218 223 224 218 211 207 208 209 209 211 211 207 205 205 209 209 203 199 199 201 204
344 341 339 335 331 325 318 313 304 289 274 262 254 247 241 236 230 226 222 220 218 213 209 210 211 211 211 209 208 210 212 213 214 214 216 217 217 217 217 216 217 218 219 219 219 218 219 220 220 221 223 224 225 228 229 230 231 230 227 227 230 232 234 236 235 234 228 222 224 226 221 213 208 210 209 208 210 211 209 207 206 208 206 201 199 201 204 205
350 347 345 343 339 334 329 324 317 303 283 264 251 243 238 233 228 225 223 220 216 211 208 208 209 208 208 207 206 209 211 211 211 212 213 214 214 215 216 215 215 216 217 217 218 218 218 218 218 219 222 224 226 229 231 233 234 233 230 229 230 233 235 236 235 234 231 225 224 226 222 213 210 212 210 208 209 211 212 210 207 206 204 201 201 206 208 206
354 352 350 348 345 340 336 330 321 310 291 268 250 238 232 228 225 222 220 218 213 208 206 207 207 207 207 205 205 208 209 209 209 210 211 211 211 212 213 213 213 214 214 215 216 216 217 218 219 221 224 227 227 229 231 232 233 233 231 228 228 232 234 234 233 231 230 226 223 227 224 212 210 213 210 208 209 212 214 213 209 206 206 206 207 211 212 210
357 355 355 353 350 346 342 337 326 312 290 264 248 239 230 222 218 216 213 211 208 204 203 204 206 206 206 206 205 206 207 208 208 208 209 209 210 211 211 212 213 213 214 215 215 215 216 216 218 220 223 225 225 227 230 231 231 233 232 227 227 230 231 231 230 227 225 223 220 227 227 215 212 215 210 207 208 212 215 213 209 208 210 212 214 215 216 216
358 357 356 356 355 352 349 347 337 321 295 254 232 230 231 223 214 209 206 204 202 199 198 200 203 204 205 206 204 204 204 206 207 207 207 207 207 208 209 210 212 213 215 216 216 215 214 213 214 216 219 222 223 224 228 230 231 234 234 229 226 227 228 229 229 226 225 222 219 225 228 218 214 216 212 208 207 210 215 213 209 210 213 214 215 215 217 219
360 358 357 358 358 357 356 357 352 336 308 264 224 207 212 218 215 208 202 198 195 194 195 197 200 202 204 205 204 203 203 204 205 205 205 205 205 205 206 207 210 212 213 215 215 215 214 212 213 215 216 219 222 224 227 228 228 232 233 229 226 226 227 228 229 227 226 223 219 224 228 220 215 216 213 209 206 206 212 215 212 212 215 213 213 214 217 219
1 359 359 360 360 0 2 6 6 358 338 281 236 206 190 190 198 200 197 194 191 191 193 195 198 201 203 203 203 202 202 203 203 203 204 204 204 204 205 206 208 210 211 212 214 214 213 211 211 213 214 217 219 222 224 226 227 230 231 228 227 228 227 229 230 228 226 222 219 224 229 224 219 219 217 212 207 202 207 215 216 217 218 216 214 216 218 220
3 0 360 1 2 4 8 13 16 19 22 18 222 209 188 176 175 179 182 186 188 190 192 194 197 200 202 203 202 201 201 201 201 202 203 203 203 203 204 205 208 209 210 211 212 212 213 213 212 212 213 214 218 220 221 223 226 229 230 227 227 226 225 226 228 228 227 223 221 225 229 228 223 222 222 217 209 201 201 210 218 221 221 220 220 221 222 223
4 1 0 1 4 9 15 20 26 32 41 65 114 161 175 171 168 169 172 178 184 188 191 193 195 197 200 201 201 201 200 199 198 200 201 201 202 202 203 204 207 209 210 211 212 213 213 213 213 213 214 214 218 221 222 223 225 228 230 228 228 227 225 225 226 227 227 224 223 224 226 229 226 223 223 220 211 203 199 205 216 222 222 223 224 225 225 224
4 1 0 2 6 12 19 27 34 42 52 67 90 114 139 156 163 167 169 174 179 184 188 190 192 195 197 198 200 201 200 198 197 197 198 199 200 201 202 203 205 207 208 209 212 214 214 213 212 214 215 216 218 220 220 221 223 227 228 226 225 226 226 227 227 227 228 226 224 223 223 227 226 223 223 221 214 208 204 205 214 221 222 223 225 226 226 226
5 1 0 2 7 14 21 32 41 48 58 69 82 99 114 133 153 163 168 171 177 181 184 186 188 192 195 196 197 198 198 198 198 196 196 197 199 199 201 204 206 207 208 209 211 213 214 213 212 212 213 214 217 218 219 220 223 226 227 223 222 223 224 227 228 227 228 227 225 224 223 226 227 224 224 223 217 213 210 209 214 220 222 222 224 226 228 228
8 3 2 3 8 15 22 33 44 52 60 69 78 90 101 115 137 155 164 168 173 179 181 182 185 188 191 193 194 194 195 197 198 196 195 195 196 197 199 203 205 206 208 210 211 213 213 213 212 211 210 212 215 217 218 220 223 226 228 226 223 223 222 224 225 224 225 226 225 224 225 227 229 227 226 225 221 216 215 215 216 218 221 223 224 226 228 229
11 6 3 3 7 14 22 32 43 52 59 67 77 86 94 105 123 143 157 164 169 175 178 179 180 183 185 188 190 191 192 195 196 195 193 193 194 196 199 201 203 204 207 208 211 213 213 212 212 211 211 214 217 219 220 222 224 227 230 229 226 224 223 223 224 223 222 224 225 225 225 228 229 228 227 228 225 218 217 219 220 219 221 223 225 226 228 229
15 10 4 2 4 12 22 31 42 53 60 67 78 86 92 101 114 131 147 158 165 170 173 174 175 177 180 182 184 188 191 193 195 194 192 191 193 196 198 199 201 203 206 208 210 212 211 211 212 212 212 216 221 224 226 227 227 229 230 229 227 224 224 225 226 226 224 223 224 224 226 229 229 227 226 228 228 223 219 220 222 222 222 224 227 227 226 228
17 14 7 3 3 11 23 30 40 53 62 69 80 89 96 103 111 122 136 150 160 166 170 172 172 173 176 177 179 185 189 190 193 193 191 190 192 194 197 198 199 200 204 207 209 210 209 208 209 211 210 213 217 218 220 221 223 225 228 229 226 223 224 225 226 227 227 225 224 223 224 227 229 228 227 227 229 228 224 222 222 223 225 227 229 228 226 226
17 16 11 8 8 13 23 30 37 52 65 73 82 92 101 108 114 119 128 140 152 160 165 169 171 172 174 176 179 183 185 186 189 191 190 190 191 192 194 196 197 199 202 206 208 208 207 205 207 208 207 209 213 215 216 216 216 217 221 224 223 221 223 225 224 225 228 228 227 225 225 227 229 229 228 227 228 230 229 226 223 223 225 228 229 229 227 227
14 16 16 16 16 16 24 32 34 45 64 76 85 95 104 110 116 121 127 133 142 153 161 166 170 172 174 178 181 184 183 183 185 188 189 189 189 190 192 194 196 198 202 204 205 205 204 204 205 207 205 206 210 214 217 217 216 216 218 220 220 219 221 223 223 224 227 230 231 229 228 229 230 230 230 228 228 230 231 230 227 225 226 229 230 229 229 229
11 16 19 20 21 21 25 32 34 37 56 78 88 96 103 109 116 121 127 133 138 146 156 163 168 171 174 177 180 183 184 181 182 186 188 187 188 190 192 194 195 199 202 203 203 203 201 202 205 206 206 206 209 213 215 217 217 218 219 220 218 217 219 220 222 223 226 231 232 230 229 231 232 232 233 233 233 233 233 233 232 230 229 230 232 231 230 231
9 15 19 20 23 26 27 30 32 31 43 71 88 97 103 109 115 121 127 135 140 145 152 161 167 169 172 176 178 180 183 182 182 186 188 187 187 189 192 194 197 199 201 202 202 201 200 202 204 206 207 207 210 213 214 216 217 218 220 220 218 217 218 220 221 222 224 230 232 231 230 231 233 233 233 233 234 234 233 233 233 232 232 231 232 233 233 233
8 13 17 19 23 29 31 30 32 32 33 51 81 97 104 110 117 123 128 136 144 147 151 157 164 168 171 175 176 177 181 182 182 186 189 189 188 189 192 195 197 199 200 200 200 200 201 202 204 206 209 210 212 215 217 219 221 220 222 221 217 216 219 221 221 221 223 228 232 233 231 230 231 233 233 232 233 233 231 232 232 232 232 232 232 233 234 233
6 9 15 18 21 28 33 33 35 36 29 29 64 94 105 112 119 125 129 135 145 150 152 156 161 166 168 171 174 176 180 182 182 185 190 191 191 190 192 195 197 198 199 198 198 199 200 203 204 207 211 213 216 218 219 221 224 224 226 224 217 216 220 221 221 222 223 227 231 232 230 228 228 232 234 235 235 234 232 232 233 233 233 233 231 231 231 231
Height
10636 10635 10634 10633 10631 10630 10629 10628 10628 10628 10628 10628 10629 10629 10630 10630 10631 10633 10634 10635 10637 10638 10638 10639 10640 10641 10644 10647 10649 10651 10653 10657 10660 10664 10663 10659 10665 10670 10668 10671 10674 10675 10678 10682 10685 10689 10691 10693 10695 10697 10701 10705 10710 10713 10717 10721 10724 10729 10735 10745 10754 10759 10761 10762 10764 10766 10770 10772 10768 10768 10773 10780 10786 10789 10791 10797 10801 10804 10807 10802 10797 10809 10823 10830 10832 10833 10835 10834
10629 10627 10626 10625 10624 10623 10621 10621 10620 10620 10620 10620 10620 10621 10622 10623 10623 10624 10626 10627 10629 10630 10630 10631 10633 10635 10637 10641 10643 10645 10647 10650 10654 10657 10653 10654 10662 10663 10661 10665 10669 10671 10673 10675 10678 10681 10684 10687 10689 10692 10696 10700 10704 10707 10711 10715 10719 10725 10731 10740 10749 10752 10752 10754 10757 10759 10765 10765 10762 10765 10767 10775 10784 10786 10792 10799 10800 10801 10799 10790 10792 10810 10820 10824 10829 10830 10831 10832
10620 10618 10617 10616 10615 10614 10613 10613 10612 10612 10612 10611 10612 10612 10613 10615 10615 10616 10618 10619 10621 10622 10623 10623 10625 10627 10630 10634 10637 10638 10641 10643 10648 10648 10645 10650 10656 10655 10657 10660 10663 10667 10667 10668 10671 10675 10678 10680 10683 10687 10691 10695 10698 10701 10705 10710 10714 10721 10726 10736 10743 10743 10743 10747 10750 10754 10757 10756 10755 10757 10761 10775 10784 10786 10793 10797 10794 10793 10789 10780 10790 10811 10816 10820 10826 10827 10828 10828
10610 10609 10607 10606 10605 10604 10603 10603 10602 10602 10602 10602 10603 10603 10604 10606 10607 10608 10609 10611 10613 10614 10615 10615 10617 10620 10623 10627 10630 10632 10634 10636 10640 10640 10639 10646 10650 10650 10653 10653 10657 10661 10661 10662 10666 10669 10672 10674 10677 10681 10686 10689 10692 10694 10699 10704 10709 10714 10721 10730 10732 10732 10736 10739 10743 10747 10747 10746 10749 10753 10763 10778 10784 10786 10789 10786 10783 10786 10784 10776 10789 10810 10813 10817 10823 10822 10824 10824
10601 10599 10597 10595 10594 10593 10592 10592 10592 10592 10592 10592 10592 10593 10594 10595 10597 10599 10600 10602 10604 10606 10607 10607 10610 10613 10616 10619 10622 10625 10627 10629 10633 10633 10633 10639 10643 10644 10647 10647 10651 10654 10655 10658 10661 10663 10666 10669 10671 10675 10680 10683 10685 10689 10694 10697 10701 10708 10716 10722 10721 10724 10730 10733 10736 10738 10737 10740 10748 10754 10764 10776 10781 10782 10776 10771 10778 10786 10782 10770 10785 10809 10811 10814 10817 10817 10819 10820
10591 10589 10587 10585 10583 10581 10580 10580 10580 10580 10580 10581 10582 10583 10583 10585 10587 10588 10591 10593 10595 10597 10598 10599 10601 10605 10608 10612 10615 10618 10620 10622 10626 10627 10627 10631 10636 10638 10640 10642 10645 10647 10650 10653 10655 10657 10660 10663 10666 10670 10673 10676 10679 10684 10687 10688 10694 10702 10709 10713 10714 10719 10724 10727 10728 10729 10732 10739 10749 10755 10762 10772 10776 10772 10763 10767 10780 10783 10773 10765 10784 10807 10809 10810 10812 10812 10814 10816
10580 10577 10575 10573 10571 10570 10568 10567 10567 10567 10568 10568 10570 10571 10572 10574 10575 10578 10580 10582 10585 10587 10589 10590 10593 10597 10600 10604 10608 10611 10613 10615 10620 10621 10619 10623 10628 10631 10633 10636 10639 10642 10645 10647 10649 10652 10654 10657 10661 10664 10667 10670 10674 10677 10680 10681 10688 10698 10704 10706 10708 10713 10718 10720 10720 10722 10730 10738 10747 10752 10756 10761 10764 10762 10759 10768 10777 10773 10764 10766 10786 10803 10805 10806 10806 10807 10809 10814
10567 10564 10562 10560 10558 10557 10556 10555 10554 10554 10554 10555 10556 10558 10560 10562 10564 10567 10569 10572 10575 10576 10579 10581 10584 10589 10591 10596 10600 10605 10609 10608 10610 10611 10611 10616 10622 10625 10628 10630 10633 10636 10639 10641 10643 10645 10648 10653 10656 10659 10661 10665 10667 10670 10673 10675 10684 10694 10699 10700 10702 10707 10712 10713 10713 10719 10728 10736 10743 10746 10747 10750 10756 10760 10758 10765 10771 10763 10759 10767 10786 10798 10799 10801 10801 10802 10806 10813
10553 10550 10547 10545 10544 10542 10542 10541 10541 10541 10541 10541 10543 10544 10546 10548 10551 10554 10557 10561 10563 10566 10569 10570 10575 10579 10583 10588 10592 10602 10602 10593 10597 10604 10607 10613 10618 10622 10623 10624 10628 10630 10633 10635 10637 10640 10644 10648 10650 10652 10655 10657 10659 10663 10667 10671 10681 10689 10692 10693 10695 10701 10705 10706 10710 10717 10724 10733 10737 10736 10740 10744 10751 10756 10756 10761 10761 10756 10757 10764 10782 10793 10795 10797 10795 10797 10804 10809
10538 10534 10532 10530 10528 10527 10527 10526 10527 10527 10527 10528 10529 10530 10532 10534 10538 10541 10544 10548 10551 10555 10558 10560 10565 10568 10575 10580 10586 10598 10588 10577 10593 10604 10606 10611 10613 10616 10617 10619 10622 10624 10626 10629 10632 10635 10638 10641 10642 10645 10648 10651 10655 10659 10663 10670 10676 10681 10684 10686 10690 10696 10699 10703 10708 10714 10720 10729 10730 10728 10735 10739 10745 10752 10753 10754 10751 10752 10755 10759 10778 10790 10790 10791 10789 10794 10801 10803
10521 10518 10515 10512 10511 10510 10510 10510 10511 10511 10512 10513 10514 10516 10518 10520 10523 10527 10531 10535 10539 10543 10546 10551 10554 10559 10567 10571 10582 10589 10571 10572 10593 10598 10601 10605 10603 10606 10609 10612 10615 10617 10620 10623 10626 10629 10631 10633 10635 10640 10645 10648 10651 10654 10659 10665 10669 10673 10678 10682 10687 10691 10695 10700 10706 10711 10715 10723 10725 10722 10727 10733 10740 10747 10748 10745 10743 10749 10751 10754 10774 10785 10784 10784 10783 10790 10798 10801
10504 10500 10497 10495 10494 10493 10492 10493 10494 10495 10496 10498 10500 10501 10503 10506 10509 10513 10517 10522 10526 10531 10535 10539 10544 10550 10557 10564 10578 10573 10557 10569 10585 10588 10596 10595 10591 10596 10600 10604 10607 10609 10613 10616 10620 10622 10624 10626 10630 10636 10641 10643 10646 10650 10655 10659 10662 10667 10673 10678 10681 10685 10692 10698 10703 10707 10709 10716 10719 10715 10720 10729 10737 10740 10740 10738 10738 10746 10749 10752 10768 10776 10777 10778 10779 10789 10797 10802
10486 10482 10479 10477 10475 10474 10474 10475 10475 10477 10479 10481 10483 10485 10488 10491 10494 10498 10502 10507 10512 10517 10522 10528 10534 10540 10548 10560 10567 10554 10548 10564 10574 10583 10590 10583 10583 10589 10592 10597 10600 10603 10606 10609 10612 10614 10617 10620 10625 10631 10635 10638 10642 10646 10650 10653 10657 10663 10669 10674 10676 10682 10690 10694 10696 10700 10703 10710 10711 10709 10719 10727 10731 10733 10733 10734 10735 10742 10745 10747 10759 10766 10770 10772 10777 10789 10798 10805
10466 10463 10460 10457 10456 10455 10455 10455 10456 10458 10460 10463 10465 10468 10472 10475 10479 10483 10487 10492 10497 10503 10509 10516 10523 10529 10541 10552 10550 10538 10540 10556 10566 10577 10581 10574 10577 10582 10586 10591 10594 10596 10599 10601 10604 10607 10611 10615 10620 10626 10630 10635 10638 10641 10645 10649 10655 10660 10665 10669 10673 10680 10686 10686 10689 10693 10698 10704 10703 10706 10718 10723 10724 10727 10729 10730 10732 10738 10739 10740 10750 10758 10763 10771 10779 10790 10797 10805
10447 10443 10440 10437 10436 10435 10435 10435 10437 10438 10440 10443 10446 10449 10453 10457 10462 10466 10471 10476 10481 10488 10496 10503 10511 10519 10533 10541 10535 10527 10533 10549 10561 10569 10570 10566 10568 10575 10580 10584 10587 10590 10592 10595 10598 10602 10606 10610 10617 10622 10627 10630 10632 10638 10643 10647 10652 10656 10660 10665 10669 10675 10678 10677 10682 10688 10693 10698 10698 10705 10716 10718 10719 10723 10725 10726 10728 10732 10732 10734 10743 10753 10760 10766 10773 10778 10779 10782
10428 10424 10421 10418 10417 10415 10415 10415 10417 10419 10421 10423 10426 10430 10435 10439 10444 10449 10454 10460 10465 10475 10483 10490 10498 10508 10523 10528 10520 10517 10527 10541 10550 10554 10556 10555 10558 10566 10572 10575 10579 10583 10586 10590 10592 10596 10601 10606 10613 10617 10621 10625 10629 10636 10639 10643 10649 10652 10655 10660 10663 10667 10669 10670 10677 10684 10688 10691 10694 10704 10713 10714 10715 10719 10721 10722 10723 10725 10727 10731 10740 10749 10753 10756 10761 10763 10759 10758
10411 10407 10403 10401 10399 10398 10397 10397 10398 10400 10402 10404 10407 10411 10416 10421 10426 10431 10436 10442 10450 10460 10469 10478 10485 10498 10512 10511 10505 10507 10516 10526 10534 10539 10543 10545 10549 10556 10562 10567 10570 10575 10580 10583 10586 10591 10596 10602 10608 10612 10617 10622 10627 10632 10636 10642 10646 10647 10651 10654 10657 10660 10663 10666 10672 10677 10681 10685 10691 10701 10708 10709 10711 10715 10717 10717 10718 10720 10724 10729 10736 10741 10744 10747 10752 10755 10755 10756
10396 10392 10388 10386 10383 10382 10381 10380 10381 10383 10385 10387 10390 10394 10398 10402 10407 10413 10418 10425 10436 10447 10457 10464 10471 10486 10495 10492 10492 10497 10504 10515 10523 10529 10533 10538 10543 10548 10556 10560 10562 10567 10572 10577 10583 10587 10592 10598 10603 10608 10614 10620 10624 10630 10635 10639 10640 10641 10645 10647 10649 10654 10658 10661 10664 10669 10674 10679 10688 10698 10702 10705 10708 10711 10713 10712 10714 10717 10721 10726 10730 10733 10737 10739 10742 10745 10749 10754
10382 10378 10374 10371 10368 10367 10366 10365 10366 10367 10369 10371 10374 10377 10380 10384 10389 10395 10400 10409 10423 10434 10443 10449 10457 10474 10479 10478 10483 10486 10494 10506 10513 10521 10527 10532 10537 10541 10550 10553 10555 10561 10567 10573 10580 10584 10589 10593 10599 10607 10614 10618 10622 10626 10630 10631 10633 10635 10638 10639 10643 10648 10653 10656 10656 10661 10670 10677 10685 10694 10697 10700 10706 10707 10708 10708 10710 10714 10718 10721 10723 10727 10731 10732 10735 10738 10742 10747
10369 10365 10361 10357 10354 10352 10351 10351 10351 10352 10354 10356 10359 10361 10364 10367 10372 10378 10385 10397 10411 10420 10428 10436 10446 10460 10464 10466 10472 10475 10485 10496 10504 10515 10520 10524 10529 10534 10542 10546 10549 10556 10563 10571 10576 10579 10583 10589 10599 10606 10609 10612 10615 10619 10622 10623 10627 10629 10631 10634 10639 10644 10649 10652 10651 10657 10671 10677 10681 10689 10692 10696 10702 10703 10703 10704 10706 10711 10715 10716 10718 10722 10725 10727 10730 10732 10735 10739
10356 10352 10347 10344 10340 10339 10338 10337 10338 10338 10340 10342 10344 10347 10349 10352 10358 10365 10373 10385 10397 10403 10412 10421 10432 10445 10449 10453 10460 10465 10476 10488 10499 10509 10512 10516 10521 10525 10534 10539 10544 10553 10561 10565 10568 10571 10579 10589 10598 10600 10601 10604 10608 10611 10614 10617 10622 10624 10627 10631 10636 10642 10646 10647 10647 10654 10669 10674 10674 10682 10688 10693 10698 10699 10700 10700 10703 10708 10711 10711 10714 10718 10722 10724 10727 10730 10733 10736
10344 10339 10335 10331 10328 10327 10326 10325 10325 10325 10327 10328 10331 10333 10335 10339 10345 10352 10361 10371 10379 10385 10396 10406 10419 10432 10434 10438 10447 10455 10467 10479 10489 10497 10503 10508 10513 10520 10528 10532 10540 10550 10553 10555 10560 10569 10579 10589 10593 10592 10595 10598 10601 10605 10608 10614 10618 10619 10624 10629 10634 10639 10642 10643 10644 10651 10664 10668 10668 10677 10683 10689 10694 10694 10696 10697 10700 10705 10707 10709 10712 10716 10719 10720 10724 10728 10731 10735
10333 10328 10324 10320 10317 10316 10314 10314 10314 10314 10315 10316 10318 10321 10323 10327 10332 10338 10347 10357 10363 10369 10382 10393 10405 10416 10417 10422 10435 10445 10458 10469 10478 10486 10492 10498 10506 10513 10519 10526 10535 10540 10543 10550 10559 10568 10578 10584 10585 10585 10589 10593 10596 10600 10605 10611 10614 10617 10623 10627 10632 10635 10637 10639 10641 10646 10656 10661 10664 10671 10678 10684 10689 10690 10693 10695 10697 10703 10706 10708 10710 10712 10714 10716 10720 10724 10727 10731
10323 10318 10314 10310 10307 10305 10304 10304 10303 10304 10305 10306 10308 10311 10313 10316 10320 10327 10335 10344 10351 10358 10369 10378 10389 10402 10404 10407 10421 10437 10448 10457 10467 10476 10481 10489 10497 10502 10510 10520 10526 10530 10538 10547 10554 10561 10571 10575 10575 10578 10584 10587 10591 10595 10602 10609 10611 10615 10621 10625 10629 10631 10632 10635 10637 10639 10648 10657 10662 10666 10672 10679 10684 10687 10689 10692 10696 10701 10704 10704 10706 10708 10709 10712 10716 10720 10723 10727
10314 10309 10305 10301 10298 10296 10295 10295 10294 10295 10295 10296 10299 10301 10304 10307 10310 10317 10324 10334 10341 10345 10353 10364 10376 10388 10387 10391 10411 10428 10437 10446 10457 10466 10472 10480 10486 10493 10503 10510 10515 10525 10535 10540 10546 10554 10562 10565 10566 10572 10578 10581 10586 10592 10600 10605 10607 10611 10618 10621 10624 10626 10627 10629 10629 10632 10643 10656 10659 10659 10666 10675 10680 10683 10685 10689 10694 10697 10699 10700 10702 10704 10706 10708 10711 10715 10718 10722
10306 10301 10297 10293 10290 10288 10287 10286 10286 10287 10287 10288 10290 10292 10295 10298 10302 10309 10315 10323 10328 10330 10341 10354 10364 10370 10370 10381 10401 10413 10424 10439 10449 10455 10462 10470 10477 10485 10493 10500 10510 10522 10528 10532 10538 10546 10553 10559 10563 10569 10573 10576 10583 10589 10596 10600 10602 10609 10614 10616 10618 10622 10623 10622 10624 10631 10642 10653 10652 10652 10662 10672 10677 10681 10683 10686 10690 10693 10695 10697 10699 10701 10702 10704 10707 10711 10714 10719
10299 10294 10290 10287 10284 10282 10280 10279 10279 10279 10280 10280 10282 10284 10287 10290 10294 10300 10306 10313 10317 10321 10333 10343 10348 10352 10354 10367 10385 10399 10416 10428 10434 10442 10453 10462 10469 10476 10485 10496 10506 10513 10517 10521 10530 10541 10550 10555 10559 10564 10568 10574 10581 10589 10594 10596 10600 10606 10609 10610 10614 10618 10618 10615 10621 10631 10637 10644 10645 10648 10659 10668 10674 10679 10680 10682 10687 10691 10693 10694 10695 10697 10699 10701 10705 10709 10713 10717
10293 10288 10285 10281 10278 10276 10274 10273 10273 10273 10273 10274 10275 10277 10280 10283 10288 10292 10298 10304 10306 10312 10323 10329 10335 10339 10342 10358 10377 10391 10403 10410 10421 10435 10444 10450 10457 10467 10480 10491 10498 10504 10508 10516 10529 10540 10544 10548 10554 10559 10565 10573 10580 10586 10589 10591 10597 10602 10603 10605 10610 10613 10612 10611 10618 10627 10631 10639 10644 10649 10657 10665 10671 10675 10676 10679 10684 10689 10691 10691 10692 10694 10697 10699 10703 10707 10710 10712
10287 10283 10279 10276 10273 10271 10269 10268 10267 10268 10267 10268 10269 10271 10273 10277 10281 10285 10289 10293 10295 10303 10312 10317 10322 10326 10334 10353 10369 10377 10387 10399 10412 10421 10424 10432 10445 10458 10472 10482 10488 10492 10498 10511 10525 10529 10533 10542 10549 10553 10562 10571 10576 10580 10583 10587 10592 10595 10597 10601 10605 10607 10606 10608 10617 10624 10629 10638 10644 10646 10653 10661 10667 10670 10672 10677 10681 10684 10686 10687 10690 10692 10694 10697 10700 10703 10705 10707
10282 10278 10275 10272 10269 10267 10265 10264 10263 10263 10262 10263 10264 10266 10268 10271 10274 10278 10281 10284 10288 10294 10302 10306 10312 10318 10328 10346 10358 10367 10381 10390 10395 10401 10409 10422 10436 10449 10461 10469 10475 10482 10493 10506 10514 10519 10528 10537 10542 10549 10560 10566 10568 10572 10577 10583 10585 10587 10593 10598 10599 10602 10604 10608 10616 10619 10627 10638 10640 10641 10648 10655 10661 10666 10670 10674 10675 10677 10681 10684 10687 10689 10690 10694 10697 10699 10701 10704
10279 10274 10271 10268 10265 10263 10261 10260 10259 10258 10258 10259 10260 10262 10264 10266 10269 10271 10274 10278 10283 10289 10297 10302 10308 10315 10326 10339 10349 10358 10367 10370 10377 10392 10405 10416 10427 10439 10449 10457 10466 10477 10489 10500 10509 10517 10525 10531 10540 10549 10554 10557 10560 10565 10572 10577 10579 10583 10590 10592 10594 10599 10601 10607 10614 10618 10628 10636 10634 10636 10642 10649 10657 10662 10665 10667 10669 10672 10677 10681 10684 10685 10688 10692 10694 10696 10698 10700
10276 10272 10268 10265 10262 10260 10258 10257 10256 10255 10255 10256 10257 10259 10260 10262 10265 10267 10270 10274 10280 10287 10294 10299 10304 10312 10320 10331 10342 10348 10351 10357 10373 10390 10400 10411 10426 10438 10447 10457 10468 10479 10490 10502 10511 10517 10521 10529 10538 10542 10543 10549 10556 10562 10569 10573 10576 10581 10586 10588 10592 10596 10599 10606 10614 10619 10627 10630 10629 10633 10638 10645 10654 10656 10658 10661 10665 10670 10674 10678 10681 10684 10686 10690 10691 10693 10695 10697
10275 10270 10266 10263 10260 10258 10256 10255 10253 10253 10253 10253 10254 10256 10257 10259 10261 10264 10268 10272 10278 10285 10291 10295 10300 10306 10313 10324 10334 10338 10342 10354 10370 10383 10392 10406 10422 10433 10443 10454 10464 10475 10488 10498 10504 10507 10513 10521 10527 10531 10539 10549 10556 10562 10569 10573 10575 10579 10582 10586 10590 10593 10598 10607 10612 10616 10621 10624 10627 10629 10631 10641 10648 10650 10654 10660 10664 10668 10671 10674 10678 10682 10684 10686 10688 10690 10691 10693
10274 10270 10266 10262 10259 10257 10255 10253 10252 10251 10251 10251 10252 10253 10255 10256 10259 10262 10266 10271 10277 10284 10289 10293 10297 10303 10310 10319 10325 10330 10341 10355 10366 10375 10386 10400 10412 10421 10432 10445 10458 10469 10480 10485 10490 10498 10507 10516 10526 10537 10544 10550 10556 10562 10565 10567 10570 10573 10577 10583 10587 10591 10598 10605 10608 10611 10615 10620 10623 10621 10625 10636 10642 10643 10650 10657 10661 10664 10667 10669 10674 10679 10682 10683 10684 10685 10686 10687
10273 10269 10266 10262 10259 10256 10254 10252 10251 10250 10249 10249 10251 10252 10253 10254 10257 10260 10264 10269 10275 10280 10286 10291 10296 10302 10308 10313 10320 10328 10340 10351 10360 10370 10382 10394 10407 10419 10433 10448 10459 10467 10473 10477 10485 10496 10507 10519 10530 10537 10539 10542 10551 10556 10556 10559 10565 10568 10571 10579 10585 10590 10596 10600 10602 10605 10610 10614 10617 10617 10623 10633 10638 10639 10647 10654 10657 10660 10662 10666 10672 10677 10679 10678 10679 10679 10680 10682
10274 10270 10266 10263 10260 10257 10254 10252 10251 10250 10249 10248 10249 10251 10253 10254 10256 10259 10263 10267 10272 10278 10283 10288 10293 10299 10303 10309 10318 10327 10336 10344 10354 10365 10378 10391 10404 10419 10434 10446 10453 10460 10467 10477 10487 10496 10506 10518 10524 10526 10529 10536 10545 10548 10548 10556 10563 10564 10569 10580 10584 10586 10590 10593 10597 10601 10605 10610 10614 10616 10620 10628 10632 10635 10642 10649 10652 10655 10658 10663 10668 10671 10672 10671 10672 10673 10675 10678
10276 10272 10268 10264 10261 10258 10255 10253 10251 10250 10249 10248 10248 10249 10252 10255 10257 10260 10263 10266 10271 10276 10280 10284 10289 10294 10299 10307 10315 10324 10331 10339 10349 10361 10374 10386 10399 10411 10425 10436 10444 10454 10465 10477 10486 10494 10504 10512 10515 10518 10525 10532 10539 10542 10543 10553 10560 10560 10568 10576 10576 10579 10586 10590 10594 10599 10603 10608 10612 10614 10616 10622 10628 10630 10635 10642 10647 10653 10656 10658 10662 10663 10662 10664 10667 10670 10672 10674
10278 10274 10270 10267 10263 10259 10256 10254 10252 10251 10250 10250 10249 10249 10250 10253 10257 10260 10264 10267 10271 10274 10277 10281 10286 10291 10297 10304 10313 10322 10329 10337 10349 10361 10372 10383 10396 10408 10421 10431 10440 10450 10462 10472 10480 10489 10497 10500 10504 10512 10521 10528 10532 10534 10540 10551 10557 10558 10564 10570 10571 10577 10585 10588 10592 10597 10601 10606 10609 10610 10612 10619 10624 10626 10630 10636 10644 10652 10654 10654 10656 10655 10655 10659 10664 10667 10668 10671
10281 10277 10273 10269 10266 10262 10259 10256 10254 10253 10252 10251 10251 10252 10252 10252 10255 10259 10263 10267 10270 10273 10276 10280 10286 10292 10298 10305 10312 10320 10328 10338 10350 10361 10372 10384 10396 10408 10419 10429 10438 10448 10458 10465 10473 10480 10484 10489 10499 10509 10517 10521 10524 10529 10540 10550 10552 10553 10559 10565 10568 10574 10580 10584 10589 10593 10597 10602 10605 10607 10611 10615 10619 10623 10626 10630 10639 10647 10650 10651 10651 10649 10650 10655 10659 10662 10664 10668
10284 10280 10276 10273 10269 10265 10261 10259 10256 10255 10254 10253 10253 10254 10255 10255 10256 10258 10260 10264 10268 10272 10276 10281 10286 10292 10298 10305 10312 10319 10327 10337 10348 10358 10371 10383 10393 10404 10415 10426 10435 10444 10454 10461 10467 10472 10476 10486 10499 10506 10510 10516 10524 10534 10544 10547 10546 10549 10557 10564 10567 10571 10576 10581 10585 10589 10594 10599 10602 10604 10608 10611 10614 10617 10620 10624 10633 10642 10647 10648 10647 10645 10646 10650 10653 10657 10660 10665
10288 10284 10281 10277 10273 10268 10265 10262 10260 10258 10256 10255 10255 10256 10257 10258 10259 10260 10261 10264 10267 10272 10276 10281 10287 10292 10298 10305 10312 10320 10328 10336 10344 10353 10366 10377 10389 10402 10414 10423 10429 10437 10447 10454 10459 10465 10472 10485 10496 10502 10511 10521 10528 10532 10535 10536 10539 10547 10555 10562 10564 10567 10572 10577 10582 10588 10592 10594 10598 10601 10604 10606 10607 10611 10615 10620 10628 10636 10641 10643 10642 10641 10644 10645 10648 10652 10657 10661
10292 10288 10285 10281 10277 10273 10269 10266 10263 10261 10259 10258 10258 10258 10259 10261 10262 10264 10264 10266 10270 10274 10278 10282 10288 10293 10299 10306 10313 10322 10331 10338 10344 10351 10362 10374 10387 10401 10412 10419 10426 10435 10443 10449 10454 10462 10471 10482 10493 10503 10512 10518 10519 10521 10525 10531 10538 10544 10551 10557 10560 10563 10569 10575 10581 10585 10587 10590 10594 10597 10600 10601 10603 10607 10611 10617 10624 10630 10634 10638 10638 10639 10640 10642 10645 10650 10653 10656
10296 10293 10290 10286 10281 10277 10274 10270 10267 10265 10263 10262 10262 10262 10262 10264 10266 10267 10268 10270 10273 10277 10280 10284 10289 10294 10301 10308 10315 10323 10331 10339 10346 10354 10364 10375 10387 10398 10406 10413 10423 10433 10440 10446 10453 10460 10468 10479 10491 10499 10504 10506 10507 10513 10520 10529 10537 10543 10549 10555 10558 10561 10567 10572 10575 10578 10582 10586 10590 10594 10597 10598 10600 10604 10608 10612 10619 10625 10629 10632 10634 10636 10637 10640 10644 10646 10647 10650
10300 10297 10294 10290 10286 10282 10279 10275 10272 10270 10268 10267 10266 10266 10266 10267 10269 10271 10273 10274 10277 10280 10284 10287 10292 10298 10304 10311 10318 10325 10331 10338 10346 10354 10363 10374 10385 10393 10399 10407 10419 10428 10436 10444 10451 10457 10466 10478 10487 10494 10499 10501 10505 10512 10522 10532 10540 10545 10549 10553 10556 10559 10563 10566 10568 10573 10579 10583 10587 10591 10593 10593 10596 10601 10604 10607 10612 10620 10625 10628 10630 10633 10635 10638 10639 10639 10641 10647
10304 10301 10298 10295 10292 10288 10284 10281 10278 10275 10273 10272 10270 10270 10270 10271 10273 10275 10277 10279 10281 10284 10287 10290 10294 10300 10306 10313 10320 10327 10332 10338 10345 10353 10362 10372 10381 10388 10396 10406 10417 10427 10435 10442 10447 10453 10466 10478 10487 10495 10503 10506 10512 10521 10529 10536 10539 10542 10545 10548 10551 10555 10558 10561 10565 10571 10577 10580 10583 10586 10588 10590 10593 10596 10599 10602 10607 10616 10622 10625 10627 10629 10632 10633 10632 10633 10639 10644
10307 10305 10303 10300 10297 10293 10289 10286 10283 10280 10278 10277 10275 10274 10274 10275 10277 10279 10281 10284 10286 10288 10290 10293 10296 10301 10307 10313 10319 10325 10330 10337 10345 10353 10361 10369 10377 10387 10397 10407 10417 10426 10432 10436 10442 10451 10464 10475 10484 10494 10502 10506 10511 10517 10522 10526 10532 10537 10540 10543 10547 10552 10554 10557 10563 10569 10573 10576 10579 10582 10585 10587 10588 10591 10596 10600 10605 10611 10616 10620 10623 10624 10626 10627 10626 10629 10635 10640
10311 10309 10307 10304 10301 10297 10294 10291 10288 10285 10283 10282 10280 10279 10279 10280 10281 10283 10285 10288 10290 10292 10294 10296 10299 10303 10307 10312 10316 10321 10326 10335 10344 10354 10361 10369 10378 10388 10398 10407 10415 10422 10426 10431 10439 10450 10462 10473 10481 10490 10497 10501 10505 10508 10512 10518 10526 10531 10533 10536 10543 10547 10549 10554 10560 10565 10568 10572 10575 10578 10581 10583 10585 10588 10592 10598 10603 10605 10608 10612 10615 10618 10620 10620 10621 10625 10631 10636
10316 10313 10311 10308 10305 10302 10299 10296 10293 10291 10288 10286 10285 10285 10284 10284 10285 10286 10288 10291 10293 10296 10298 10300 10303 10306 10310 10314 10318 10322 10327 10334 10344 10354 10362 10370 10378 10386 10394 10402 10411 10416 10420 10428 10437 10449 10461 10471 10478 10485 10491 10495 10498 10502 10507 10514 10519 10524 10527 10532 10538 10541 10544 10550 10556 10560 10565 10568 10571 10575 10578 10580 10581 10584 10589 10595 10599 10600 10602 10605 10608 10612 10615 10616 10619 10624 10629 10632
10320 10317 10313 10311 10309 10307 10303 10300 10298 10296 10294 10291 10290 10289 10289 10289 10290 10291 10292 10294 10296 10299 10302 10304 10307 10310 10314 10319 10323 10329 10334 10339 10346 10354 10361 10368 10376 10384 10391 10398 10404 10410 10417 10425 10435 10448 10460 10469 10475 10481 10486 10490 10492 10496 10502 10509 10515 10521 10524 10528 10533 10536 10541 10546 10551 10557 10561 10564 10567 10571 10575 10576 10578 10583 10589 10593 10595 10596 10598 10601 10604 10609 10612 10614 10617 10621 10625 10629
10323 10319 10317 10315 10313 10310 10307 10305 10303 10302 10299 10296 10295 10294 10294 10294 10294 10295 10297 10298 10299 10301 10304 10308 10311 10314 10319 10323 10327 10334 10340 10345 10349 10355 10362 10368 10375 10382 10390 10397 10402 10407 10415 10425 10438 10450 10460 10466 10471 10476 10479 10482 10486 10491 10498 10504 10511 10517 10520 10524 10530 10534 10538 10543 10548 10553 10558 10560 10563 10567 10570 10573 10577 10581 10586 10588 10589 10590 10593 10597 10601 10605 10608 10611 10615 10618 10622 10626
10326 10323 10321 10318 10316 10314 10312 10310 10308 10306 10304 10302 10300 10298 10298 10298 10298 10299 10300 10302 10303 10304 10306 10310 10314 10318 10322 10327 10331 10336 10342 10348 10353 10360 10366 10370 10375 10382 10389 10395 10403 10410 10419 10431 10442 10451 10457 10462 10466 10470 10474 10479 10484 10490 10498 10504 10510 10515 10517 10522 10528 10532 10536 10541 10545 10550 10553 10556 10559 10563 10566 10570 10574 10577 10579 10581 10581 10584 10589 10593 10597 10600 10603 10607 10611 10614 10618 10621
10330 10327 10324 10321 10320 10318 10315 10313 10312 10310 10309 10307 10305 10303 10302 10302 10303 10303 10304 10305 10307 10308 10309 10312 10316 10320 10324 10330 10335 10338 10343 10348 10354 10360 10366 10371 10376 10383 10388 10395 10403 10412 10423 10433 10441 10447 10452 10458 10463 10468 10474 10481 10486 10492 10499 10505 10510 10514 10517 10522 10528 10531 10533 10538 10542 10546 10550 10553 10554 10557 10561 10567 10570 10572 10574 10575 10576 10581 10587 10590 10593 10596 10599 10601 10606 10609 10612 10615